NOAA 21 (JPSS-2)

Last updated on Sat Nov 01 2025 00:02:22 GMT+0000 (Coordinated Universal Time)

1 54234U 22150A 25304.66352206 .00000160 00000+0 96427-4 0 9990 2 54234 98.7391 241.5105 0002559 105.4121 254.7338 14.19579220154125
UTC large
Height (km)
Speed (km/s)
/
Latitude / Longitude
Inclination (degrees)
Orbital Period (minutes)
Azimuth
Elevation
Range (km)
Doppler Factor

Next 0 passes for location: London (51.5072 / 0.1276)

Sorry there are no passes over London.